SKYNET 5C

Last updated on Sun Apr 12 2026 00:02:51 GMT+0000 (Coordinated Universal Time)

1 33055U 08030A 26101.37450976 -.00000135 00000+0 00000+0 0 9996 2 33055 3.6171 77.8116 0003763 304.5452 294.2867 1.00271487 65287
UTC large
Height (km)
Speed (km/s)
/
Latitude / Longitude
Inclination (degrees)
Orbital Period (minutes)
Azimuth
Elevation
Range (km)
Doppler Factor

Next 0 passes for location: London (51.5072 / 0.1276)

Sorry there are no passes over London.
SKYNET 5C